ALOS (DAICHI)

Last updated on Wed Oct 29 2025 00:02:15 GMT+0000 (Coordinated Universal Time)

1 28931U 06002A 25301.47909652 .00002462 00000+0 42588-3 0 9997 2 28931 98.1016 253.3107 0001757 55.5604 304.5767 14.69259489 54060
UTC large
Height (km)
Speed (km/s)
/
Latitude / Longitude
Inclination (degrees)
Orbital Period (minutes)
Azimuth
Elevation
Range (km)
Doppler Factor

Next 0 passes for location: London (51.5072 / 0.1276)

Sorry there are no passes over London.